TimeCST,TemperatureF,Dew PointF,Humidity,Sea Level PressureIn,VisibilityMPH,Wind Direction,Wind SpeedMPH,Gust SpeedMPH,PrecipitationIn,Events,Conditions,WindDirDegrees,DateUTC
12:32 AM,50.0,45.0,83,30.22,10.0,ENE,5.8,-,N/A,,Overcast,70,2014-01-10 06:32:00
12:46 AM,50.0,45.0,83,30.21,10.0,ENE,3.5,-,N/A,,Overcast,60,2014-01-10 06:46:00
12:53 AM,50.0,45.0,83,30.21,10.0,NE,5.8,-,N/A,,Overcast,40,2014-01-10 06:53:00
1:53 AM,50.0,46.0,86,30.19,10.0,ENE,5.8,-,N/A,,Overcast,70,2014-01-10 07:53:00
2:53 AM,50.0,46.9,89,30.18,9.0,ENE,3.5,-,N/A,,Overcast,60,2014-01-10 08:53:00
3:53 AM,51.1,48.0,89,30.17,6.0,NE,5.8,-,N/A,,Overcast,40,2014-01-10 09:53:00
4:53 AM,51.1,48.0,89,30.15,8.0,Variable,6.9,-,N/A,,Overcast,0,2014-01-10 10:53:00
5:35 AM,51.1,48.9,92,30.13,9.0,ENE,4.6,-,N/A,,Overcast,70,2014-01-10 11:35:00
5:53 AM,51.1,48.0,89,30.12,9.0,NE,8.1,-,N/A,,Scattered Clouds,50,2014-01-10 11:53:00
6:21 AM,51.1,48.9,92,30.12,8.0,Calm,Calm,-,N/A,,Partly Cloudy,0,2014-01-10 12:21:00
6:34 AM,50.0,48.0,93,30.13,6.0,ESE,5.8,-,N/A,,Mostly Cloudy,120,2014-01-10 12:34:00
6:53 AM,51.1,48.9,92,30.13,5.0,ENE,5.8,-,N/A,,Overcast,70,2014-01-10 12:53:00
7:53 AM,52.0,50.0,93,30.14,4.0,NE,4.6,-,N/A,,Overcast,50,2014-01-10 13:53:00
8:53 AM,54.0,51.1,90,30.16,5.0,ENE,5.8,-,N/A,,Overcast,70,2014-01-10 14:53:00
9:53 AM,57.0,52.0,83,30.15,7.0,East,5.8,-,N/A,,Overcast,80,2014-01-10 15:53:00
10:53 AM,59.0,54.0,83,30.11,10.0,East,8.1,-,N/A,,Overcast,80,2014-01-10 16:53:00
11:00 AM,59.0,54.0,83,30.11,9.0,East,5.8,-,N/A,,Overcast,80,2014-01-10 17:00:00
11:53 AM,60.1,55.0,83,30.07,5.0,ENE,4.6,-,N/A,,Haze,60,2014-01-10 17:53:00
12:33 PM,61.0,57.9,90,30.04,1.8,East,5.8,-,0.00,Rain,Light Rain,90,2014-01-10 18:33:00
12:50 PM,60.8,57.2,88,30.02,3.0,East,8.1,-,0.00,Rain,Light Rain,100,2014-01-10 18:50:00
12:53 PM,61.0,57.9,90,30.02,5.0,ESE,8.1,-,0.00,Rain,Light Rain,110,2014-01-10 18:53:00
1:28 PM,60.1,57.9,93,30.00,1.8,ESE,12.7,-,0.00,,Overcast,110,2014-01-10 19:28:00
1:45 PM,60.1,57.9,93,30.00,2.0,ESE,9.2,-,0.00,Rain,Light Rain,110,2014-01-10 19:45:00
1:53 PM,60.1,57.9,93,29.99,1.5,ESE,10.4,-,0.00,Rain,Light Rain,110,2014-01-10 19:53:00
2:53 PM,61.0,59.0,93,29.98,1.2,ESE,11.5,-,0.03,Rain,Light Rain,120,2014-01-10 20:53:00
3:53 PM,60.1,57.9,93,29.97,0.8,ESE,12.7,-,0.00,Rain,Light Rain,110,2014-01-10 21:53:00
4:53 PM,60.1,57.9,93,29.97,0.5,SE,10.4,-,0.01,Fog,Fog,130,2014-01-10 22:53:00
5:53 PM,57.9,57.0,97,29.96,0.8,SE,10.4,-,N/A,,Overcast,130,2014-01-10 23:53:00
6:53 PM,57.9,57.0,97,29.96,0.8,SE,10.4,-,N/A,,Mist,130,2014-01-11 00:53:00
7:43 PM,57.9,57.0,97,29.97,0.2,SE,9.2,-,N/A,Fog,Fog,140,2014-01-11 01:43:00
7:53 PM,57.0,55.9,96,29.97,0.5,SE,8.1,-,N/A,Fog,Fog,140,2014-01-11 01:53:00
8:53 PM,57.9,57.0,97,29.95,0.5,SE,6.9,-,0.13,Fog,Fog,140,2014-01-11 02:53:00
9:36 PM,60.1,57.9,93,29.94,0.2,SSE,6.9,-,N/A,Fog,Fog,150,2014-01-11 03:36:00
9:53 PM,60.1,59.0,96,29.94,0.2,SSE,6.9,-,N/A,Fog,Fog,160,2014-01-11 03:53:00
10:53 PM,61.0,60.1,97,29.93,0.2,SSE,5.8,-,0.00,Fog,Fog,160,2014-01-11 04:53:00
11:19 PM,62.1,61.0,96,29.92,0.5,South,9.2,-,N/A,Fog-Thunderstorm,Unknown,170,2014-01-11 05:19:00
11:40 PM,62.1,61.0,96,29.91,0.5,South,9.2,18.4,N/A,Fog,Fog,180,2014-01-11 05:40:00
11:53 PM,62.1,61.0,96,29.91,0.5,South,10.4,19.6,N/A,Fog,Fog,180,2014-01-11 05:53:00